Tracking 19854 objects as of 23-Sep-2019
HD Live streaming from Space Station
objects crossing your sky now

SL-14 R/B

Track SL-14 R/B now!
10-day predictions


NORAD ID: 17588
Int'l Code: 1987-026G
Perigee: 1,418.9 km
Apogee: 1,476.9 km
Inclination: 82.6 °
Period: 114.7 minutes
Semi major axis: 7818 km
RCS: 5.338 m2 (large)
Launch date: March 13, 1987
Source: Commonwealth of Independent States (former USSR) (CIS)
Launch site: PLESETSK MISSILE AND SPACE COMPLEX (PKMTR)

Note: This is a ROCKET BODY
aabbcc
Your satellite tracking list
Your tracking list is empty




NASA's NSSDC Master Catalog

Two Line Element Set (TLE):
1 17588U 87026G   19265.84120086  .00000006  00000-0 -24015-4 0  9997
2 17588  82.5639  97.4022 0037040 262.5216 226.3839 12.55693303491145
Source of the keplerian elements: AFSPC